SL-12 R/B(2), 15334

Orbit data source: Space-Track

SL-12 R/B(2), 15334 is space debris in LEO originally from a launch on Fri, 28 Sep 1984 UTC launched from the Tyuratam Missile And Space Complex (TTMTR). Debris objects in space refer to the collection of defunct objects orbiting the Earth. Examples of debris include non-operational satellites, rocket bodies, and fragments generated from explosions, collisions, or faulty payload assembly.

Loading next visibility...
Identifier
15334, 1984-106B
Orbit
LEO
Country
Flag of CISCIS
Related business
Manufacturer
NPO Energiya
Mission
Spacecraft
Bus & Motor
BLOK DM, Unknown motor
Mass
2,660 kg wet, 2,440 kg dry
Launch date (UTC)
1984-09-28 (42 years ago)
Launch vehicle
Unknown
Launch site
Tyuratam Missile And Space Complex (TTMTR)
Object type
Payload
Rocket body
Debris
Shape & HBR
Unknown
Radar Cross Section
Large (>1 m²)

Expand to show TLE details & history
Last TLE update: 2 days ago

TLE from 2 days ago
0 SL-12 R/B(2)
1 15334U 84106B   26171.43163286 -.00000045  00000-0  12223-5 0  9990
2 15334  71.0023 332.6505 0004809 321.1380  38.9397 14.15659088 34377
Epoch: 2026-06-20T10:21Z
TLE epoch observation values (Epoch: 2026-06-20T10:21:33.079Z)
Latitude
0.00004°
Longitude
-91.38367°
Altitude
839.772 km
Speed
7.435 km/s
True Right ascension
22h 10m 36s
True Declination
0° 00' 00"
Sunlit
Object was in daylight at epoch
Visualization orbit readout
Latitude
Unknown
Longitude
Unknown
Altitude
Unknown
Speed
Unknown
Apparent Right ascension
Unknown
Apparent Declination
Unknown
Sunlit
N/A
Visualization observer readout
Local Sidereal Time
00:51:00
Azimuth
Unknown
Elevation
Unknown
Doppler factor
Unknown
Orbital elements
Apogee altitude
841.465 km
Perigee altitude
834.525 km
Semi-major axis
7,216.132 km
Eccentricity
0.00048
Inclination
71.0023°
RAAN
332.6505°
Arg. of periapsis
321.138°
True anomaly
38.97435°
Mean anomaly
38.9397°
Eccentric anomaly
38.95702°
Mean motion
3.54068 °/min
Orbital period
101.68 mins
BSTAR
0.0000012223
Loading maneuver chart data...
Computing Atmospheric mass density...

Documentation

Showing up to 5 results
|